Time,TemperatureF,DewpointF,PressureIn,WindDirection,WindDirectionDegrees,WindSpeedMPH,WindSpeedGustMPH,Humidity,HourlyPrecipIn,Conditions,Clouds,dailyrainin,SoftwareType,DateUTC
2013-01-10 01:26:00,41.6,26.6,30.03,WSW,242,7.2,11.5,55,0.00,CLR,,0.00,WeatherDisplay:10.37,2013-01-10 06:26:00,
2013-01-10 01:32:00,41.5,26.5,30.03,West,259,7.5,12.7,55,0.00,CLR,,0.00,WeatherDisplay:10.37,2013-01-10 06:32:00,
2013-01-10 01:37:00,41.5,27.0,30.03,West,273,6.3,9.0,56,0.00,CLR,,0.00,WeatherDisplay:10.37,2013-01-10 06:37:00,
2013-01-10 01:42:00,41.5,26.5,30.03,SW,231,8.9,13.8,55,0.00,CLR,,0.00,WeatherDisplay:10.37,2013-01-10 06:42:00,
2013-01-10 01:47:00,41.6,26.6,30.03,SW,228,8.5,11.5,55,0.00,CLR,,0.00,WeatherDisplay:10.37,2013-01-10 06:47:00,
2013-01-10 01:52:00,41.7,26.3,30.03,NW,312,5.0,11.5,54,0.00,CLR,,0.00,WeatherDisplay:10.37,2013-01-10 06:52:00,
2013-01-10 01:57:00,41.7,26.7,30.03,SW,231,10.1,17.3,55,0.00,CLR,,0.00,WeatherDisplay:10.37,2013-01-10 06:57:00,
2013-01-10 02:02:00,41.8,26.8,30.03,NW,304,9.1,16.1,55,0.00,CLR,,0.00,WeatherDisplay:10.37,2013-01-10 07:02:00,
2013-01-10 02:08:00,41.8,26.8,30.03,WNW,293,8.9,13.8,55,0.00,CLR,,0.00,WeatherDisplay:10.37,2013-01-10 07:08:00,
2013-01-10 02:13:00,42.2,26.7,30.03,WNW,283,12.0,18.4,54,0.00,CLR,,0.00,WeatherDisplay:10.37,2013-01-10 07:13:00,
2013-01-10 02:18:00,42.1,27.1,30.05,West,274,14.1,22.0,55,0.00,CLR,,0.00,WeatherDisplay:10.37,2013-01-10 07:18:00,
2013-01-10 02:23:00,42.3,26.8,30.05,WNW,301,10.6,18.4,54,0.00,CLR,,0.00,WeatherDisplay:10.37,2013-01-10 07:23:00,
2013-01-10 02:28:00,42.5,27.5,30.05,WSW,242,14.2,28.8,55,0.00,CLR,,0.00,WeatherDisplay:10.37,2013-01-10 07:28:00,
2013-01-10 02:34:00,42.3,26.8,30.05,West,277,14.7,23.0,54,0.00,CLR,,0.00,WeatherDisplay:10.37,2013-01-10 07:34:00,
2013-01-10 02:39:00,42.2,26.3,30.06,NW,312,13.6,23.0,53,0.00,CLR,,0.00,WeatherDisplay:10.37,2013-01-10 07:39:00,
2013-01-10 02:44:00,42.0,27.0,30.07,WNW,282,11.8,19.6,55,0.00,CLR,,0.00,WeatherDisplay:10.37,2013-01-10 07:44:00,
2013-01-10 02:49:00,41.9,26.4,30.07,ENE,68,10.0,17.3,54,0.00,CLR,,0.00,WeatherDisplay:10.37,2013-01-10 07:49:00,
2013-01-10 02:55:00,41.8,26.8,30.07,West,270,10.8,19.6,55,0.00,CLR,,0.00,WeatherDisplay:10.37,2013-01-10 07:55:00,
2013-01-10 03:00:00,41.6,26.6,30.08,NW,321,7.1,11.5,55,0.00,CLR,,0.00,WeatherDisplay:10.37,2013-01-10 08:00:00,
2013-01-10 03:05:00,41.3,26.3,30.08,WNW,287,4.8,10.4,55,0.00,CLR,,0.00,WeatherDisplay:10.37,2013-01-10 08:05:00,
2013-01-10 03:10:00,41.3,26.3,30.08,West,268,7.3,13.8,55,0.00,CLR,,0.00,WeatherDisplay:10.37,2013-01-10 08:10:00,
2013-01-10 03:15:00,41.2,26.7,30.08,WNW,303,5.0,21.0,56,0.00,CLR,CLR,0.00,WeatherDisplay:10.37,2013-01-10 08:15:00,
2013-01-10 03:20:00,41.1,26.6,30.08,WNW,292,9.0,20.0,56,0.00,CLR,CLR,0.00,WeatherDisplay:10.37,2013-01-10 08:20:00,
2013-01-10 03:25:00,41.0,26.5,30.09,WNW,286,8.0,17.0,56,0.00,CLR,CLR,0.00,WeatherDisplay:10.37,2013-01-10 08:25:00,
2013-01-10 03:30:00,41.0,26.5,30.09,West,275,9.9,15.0,56,0.00,CLR,,0.00,WeatherDisplay:10.37,2013-01-10 08:30:00,
2013-01-10 03:35:00,40.8,26.3,30.09,WNW,284,5.0,20.0,56,0.00,CLR,CLR,0.00,WeatherDisplay:10.37,2013-01-10 08:35:00,
2013-01-10 03:40:00,40.8,26.7,30.10,WNW,283,7.0,20.0,57,0.00,CLR,CLR,0.00,WeatherDisplay:10.37,2013-01-10 08:40:00,
2013-01-10 03:45:00,40.8,26.7,30.10,WNW,289,7.0,16.0,57,0.00,CLR,CLR,0.00,WeatherDisplay:10.37,2013-01-10 08:45:00,
2013-01-10 03:50:00,40.7,26.6,30.11,West,276,9.4,17.3,57,0.00,CLR,,0.00,WeatherDisplay:10.37,2013-01-10 08:50:00,
2013-01-10 03:56:00,40.5,26.4,30.11,NW,318,9.2,18.0,57,0.00,CLR,,0.00,WeatherDisplay:10.37,2013-01-10 08:56:00,
2013-01-10 04:01:00,40.8,26.7,30.11,WNW,298,4.7,10.0,57,0.00,CLR,,0.00,WeatherDisplay:10.37,2013-01-10 09:01:00,
2013-01-10 04:06:00,40.4,26.4,30.12,WNW,302,4.2,11.5,57,0.00,CLR,,0.00,WeatherDisplay:10.37,2013-01-10 09:06:00,
2013-01-10 04:11:00,40.5,26.4,30.12,NW,304,7.0,11.5,57,0.00,CLR,,0.00,WeatherDisplay:10.37,2013-01-10 09:11:00,
2013-01-10 04:17:00,40.4,25.9,30.13,West,276,10.8,15.0,56,0.00,CLR,,0.00,WeatherDisplay:10.37,2013-01-10 09:17:00,
2013-01-10 04:22:00,40.7,26.2,30.14,West,271,10.7,16.1,56,0.00,CLR,,0.00,WeatherDisplay:10.37,2013-01-10 09:22:00,
2013-01-10 04:27:00,40.6,25.7,30.14,NW,323,8.5,15.0,55,0.00,CLR,,0.00,WeatherDisplay:10.37,2013-01-10 09:27:00,
2013-01-10 04:32:00,40.7,25.3,30.15,WNW,294,6.1,13.8,54,0.00,CLR,,0.00,WeatherDisplay:10.37,2013-01-10 09:32:00,
2013-01-10 04:38:00,40.5,25.1,30.14,West,271,8.1,11.5,54,0.00,CLR,,0.00,WeatherDisplay:10.37,2013-01-10 09:38:00,
2013-01-10 04:43:00,40.5,25.1,30.14,West,273,7.3,12.7,54,0.00,CLR,,0.00,WeatherDisplay:10.37,2013-01-10 09:43:00,
2013-01-10 04:48:00,40.4,25.1,30.15,NW,305,9.6,12.7,54,0.00,CLR,,0.00,WeatherDisplay:10.37,2013-01-10 09:48:00,
2013-01-10 04:53:00,40.4,24.6,30.15,NW,311,8.6,15.0,53,0.00,CLR,,0.00,WeatherDisplay:10.37,2013-01-10 09:53:00,
2013-01-10 04:58:00,40.3,24.5,30.15,NW,317,8.9,14.0,53,0.00,CLR,,0.00,WeatherDisplay:10.37,2013-01-10 09:58:00,
2013-01-10 05:04:00,40.3,25.0,30.15,NW,308,10.6,18.4,54,0.00,CLR,,0.00,WeatherDisplay:10.37,2013-01-10 10:04:00,
2013-01-10 05:09:00,40.4,24.6,30.15,WSW,253,6.8,12.7,53,0.00,CLR,,0.00,WeatherDisplay:10.37,2013-01-10 10:09:00,
2013-01-10 05:14:00,40.4,24.1,30.15,NW,305,9.1,15.0,52,0.00,CLR,,0.00,WeatherDisplay:10.37,2013-01-10 10:14:00,
2013-01-10 05:19:00,40.5,24.7,30.15,WNW,298,6.8,12.7,53,0.00,CLR,,0.00,WeatherDisplay:10.37,2013-01-10 10:19:00,
2013-01-10 05:25:00,40.3,24.5,30.16,NW,318,7.0,11.5,53,0.00,CLR,,0.00,WeatherDisplay:10.37,2013-01-10 10:25:00,
2013-01-10 05:30:00,40.3,24.5,30.16,NW,309,9.9,15.0,53,0.00,CLR,,0.00,WeatherDisplay:10.37,2013-01-10 10:30:00,
2013-01-10 05:35:00,40.2,24.9,30.16,WNW,282,7.5,13.8,54,0.00,CLR,,0.00,WeatherDisplay:10.37,2013-01-10 10:35:00,
2013-01-10 05:40:00,40.1,24.8,30.17,WNW,296,8.3,12.0,54,0.00,CLR,,0.00,WeatherDisplay:10.37,2013-01-10 10:40:00,
2013-01-10 05:45:00,40.1,24.3,30.17,NW,304,9.0,17.0,53,0.00,CLR,CLR,0.00,WeatherDisplay:10.37,2013-01-10 10:45:00,
2013-01-10 05:50:00,40.2,24.4,30.17,WNW,303,10.0,17.0,53,0.00,CLR,CLR,0.00,WeatherDisplay:10.37,2013-01-10 10:50:00,
2013-01-10 05:55:00,40.1,24.3,30.17,WNW,301,8.0,17.0,53,0.00,CLR,CLR,0.00,WeatherDisplay:10.37,2013-01-10 10:55:00,
2013-01-10 06:00:00,40.1,23.9,30.17,WNW,301,10.0,20.0,52,0.00,CLR,CLR,0.00,WeatherDisplay:10.37,2013-01-10 11:00:00,
2013-01-10 06:05:00,40.0,24.2,30.18,WNW,299,7.0,20.0,53,0.00,CLR,CLR,0.00,WeatherDisplay:10.37,2013-01-10 11:05:00,
2013-01-10 06:10:00,39.9,24.1,30.18,WNW,303,7.0,14.0,53,0.00,CLR,CLR,0.00,WeatherDisplay:10.37,2013-01-10 11:10:00,
2013-01-10 06:15:00,39.7,24.4,30.19,WNW,300,10.0,20.0,54,0.00,CLR,CLR,0.00,WeatherDisplay:10.37,2013-01-10 11:15:00,
2013-01-10 06:20:00,39.8,24.0,30.19,WNW,294,9.0,20.0,53,0.00,CLR,CLR,0.00,WeatherDisplay:10.37,2013-01-10 11:20:00,
2013-01-10 06:25:00,39.7,24.4,30.20,WNW,299,7.0,16.0,54,0.00,CLR,CLR,0.00,WeatherDisplay:10.37,2013-01-10 11:25:00,
2013-01-10 06:30:00,39.7,23.9,30.21,WNW,297,6.0,16.0,53,0.00,CLR,CLR,0.00,WeatherDisplay:10.37,2013-01-10 11:30:00,
2013-01-10 06:35:00,39.5,24.2,30.21,WNW,292,7.3,12.7,54,0.00,CLR,,0.00,WeatherDisplay:10.37,2013-01-10 11:35:00,
2013-01-10 06:40:00,39.3,24.0,30.22,WNW,295,7.5,12.0,54,0.00,CLR,,0.00,WeatherDisplay:10.37,2013-01-10 11:40:00,
2013-01-10 06:45:00,39.0,23.3,30.22,WNW,302,8.2,15.0,53,0.00,CLR,,0.00,WeatherDisplay:10.37,2013-01-10 11:45:00,
2013-01-10 06:51:00,39.2,23.5,30.22,NNW,329,5.9,12.7,53,0.00,CLR,,0.00,WeatherDisplay:10.37,2013-01-10 11:51:00,
2013-01-10 06:56:00,39.2,23.5,30.22,NW,305,5.1,15.0,53,0.00,CLR,,0.00,WeatherDisplay:10.37,2013-01-10 11:56:00,
2013-01-10 07:01:00,39.3,23.1,30.22,NW,315,8.8,16.1,52,0.00,CLR,,0.00,WeatherDisplay:10.37,2013-01-10 12:01:00,
2013-01-10 07:06:00,39.2,23.5,30.22,WNW,290,6.7,12.0,53,0.00,CLR,,0.00,WeatherDisplay:10.37,2013-01-10 12:06:00,
2013-01-10 07:12:00,39.0,23.3,30.23,NW,307,6.1,10.4,53,0.00,CLR,,0.00,WeatherDisplay:10.37,2013-01-10 12:12:00,
2013-01-10 07:17:00,39.0,23.3,30.24,NW,321,6.7,11.5,53,0.00,CLR,,0.00,WeatherDisplay:10.37,2013-01-10 12:17:00,
2013-01-10 07:22:00,38.9,23.7,30.23,WSW,243,4.3,8.1,54,0.00,CLR,,0.00,WeatherDisplay:10.37,2013-01-10 12:22:00,
2013-01-10 07:27:00,38.7,23.5,30.24,WNW,301,5.8,10.4,54,0.00,CLR,,0.00,WeatherDisplay:10.37,2013-01-10 12:27:00,
2013-01-10 07:33:00,38.7,23.5,30.24,West,278,7.2,18.4,54,0.00,CLR,,0.00,WeatherDisplay:10.37,2013-01-10 12:33:00,
2013-01-10 07:38:00,38.6,23.4,30.24,WNW,294,5.6,8.1,54,0.00,CLR,,0.00,WeatherDisplay:10.37,2013-01-10 12:38:00,
2013-01-10 07:43:00,38.8,23.1,30.24,WNW,295,10.3,13.8,53,0.00,CLR,,0.00,WeatherDisplay:10.37,2013-01-10 12:43:00,
2013-01-10 07:48:00,38.9,23.2,30.25,West,266,6.4,11.0,53,0.00,CLR,,0.00,WeatherDisplay:10.37,2013-01-10 12:48:00,
2013-01-10 07:53:00,38.9,23.2,30.25,West,273,9.3,10.4,53,0.00,CLR,,0.00,WeatherDisplay:10.37,2013-01-10 12:53:00,
2013-01-10 07:58:00,38.9,22.8,30.25,WNW,300,7.0,15.0,52,0.00,CLR,,0.00,WeatherDisplay:10.37,2013-01-10 12:58:00,
2013-01-10 08:04:00,39.0,22.8,30.26,NW,305,4.2,6.9,52,0.00,CLR,,0.00,WeatherDisplay:10.37,2013-01-10 13:04:00,
2013-01-10 08:09:00,39.3,23.1,30.26,NW,315,3.9,6.9,52,0.00,CLR,,0.00,WeatherDisplay:10.37,2013-01-10 13:09:00,
2013-01-10 08:14:00,39.2,23.0,30.27,WNW,293,5.6,11.5,52,0.00,CLR,,0.00,WeatherDisplay:10.37,2013-01-10 13:14:00,
2013-01-10 08:19:00,39.3,22.7,30.28,WNW,296,6.4,11.5,51,0.00,CLR,,0.00,WeatherDisplay:10.37,2013-01-10 13:19:00,
2013-01-10 08:24:00,39.6,22.9,30.28,WNW,282,5.0,7.0,51,0.00,CLR,,0.00,WeatherDisplay:10.37,2013-01-10 13:24:00,
2013-01-10 08:30:00,39.7,23.0,30.29,WNW,298,5.7,8.1,51,0.00,CLR,,0.00,WeatherDisplay:10.37,2013-01-10 13:30:00,
2013-01-10 08:35:00,40.0,23.3,30.29,WNW,295,6.0,10.4,51,0.00,CLR,,0.00,WeatherDisplay:10.37,2013-01-10 13:35:00,
2013-01-10 08:40:00,40.3,23.1,30.30,NW,308,2.6,8.1,50,0.00,CLR,,0.00,WeatherDisplay:10.37,2013-01-10 13:40:00,
2013-01-10 08:45:00,40.4,22.7,30.29,NW,310,4.6,10.4,49,0.00,CLR,,0.00,WeatherDisplay:10.37,2013-01-10 13:45:00,
2013-01-10 08:50:00,40.7,23.0,30.30,West,275,6.1,10.4,49,0.00,CLR,,0.00,WeatherDisplay:10.37,2013-01-10 13:50:00,
2013-01-10 08:55:00,40.9,23.2,30.30,WNW,296,3.5,9.2,49,0.00,CLR,,0.00,WeatherDisplay:10.37,2013-01-10 13:55:00,
2013-01-10 09:00:00,41.0,22.8,30.29,WNW,290,7.0,25.0,48,0.00,CLR,CLR,0.00,WeatherDisplay:10.37,2013-01-10 14:00:00,
2013-01-10 09:05:00,41.2,23.0,30.30,WNW,296,6.0,14.0,48,0.00,CLR,CLR,0.00,WeatherDisplay:10.37,2013-01-10 14:05:00,
2013-01-10 09:10:00,41.4,22.7,30.30,WNW,300,8.0,13.0,47,0.00,CLR,CLR,0.00,WeatherDisplay:10.37,2013-01-10 14:10:00,
2013-01-10 09:15:00,41.6,22.3,30.29,WNW,303,12.0,20.0,46,0.00,CLR,CLR,0.00,WeatherDisplay:10.37,2013-01-10 14:15:00,
2013-01-10 09:20:00,41.8,23.0,30.30,WNW,303,9.0,25.0,47,0.00,CLR,CLR,0.00,WeatherDisplay:10.37,2013-01-10 14:20:00,
2013-01-10 09:25:00,41.9,22.6,30.30,WNW,303,7.0,13.0,46,0.00,CLR,CLR,0.00,WeatherDisplay:10.37,2013-01-10 14:25:00,
2013-01-10 09:30:00,42.1,22.8,30.30,NW,305,7.0,12.0,46,0.00,CLR,CLR,0.00,WeatherDisplay:10.37,2013-01-10 14:30:00,
2013-01-10 09:35:00,42.2,22.4,30.29,West,281,9.0,15.0,45,0.00,CLR,,0.00,WeatherDisplay:10.37,2013-01-10 14:35:00,
2013-01-10 09:40:00,42.2,22.4,30.29,NW,310,6.0,20.0,45,0.00,CLR,CLR,0.00,WeatherDisplay:10.37,2013-01-10 14:40:00,
2013-01-10 09:45:00,42.4,22.5,30.30,NW,308,7.0,18.0,45,0.00,CLR,CLR,0.00,WeatherDisplay:10.37,2013-01-10 14:45:00,
2013-01-10 09:50:00,42.5,22.1,30.30,NW,311,9.0,18.0,44,0.00,CLR,CLR,0.00,WeatherDisplay:10.37,2013-01-10 14:50:00,
2013-01-10 09:55:00,42.5,22.6,30.30,NW,314,6.9,11.5,45,0.00,CLR,,0.00,WeatherDisplay:10.37,2013-01-10 14:55:00,
2013-01-10 10:00:00,42.7,22.3,30.31,North,2,9.6,16.1,44,0.00,CLR,,0.00,WeatherDisplay:10.37,2013-01-10 15:00:00,
2013-01-10 10:05:00,43.0,22.5,30.31,NW,310,6.6,11.5,44,0.00,CLR,,0.00,WeatherDisplay:10.37,2013-01-10 15:05:00,
2013-01-10 10:11:00,43.1,22.6,30.31,NW,311,6.4,16.1,44,0.00,CLR,,0.00,WeatherDisplay:10.37,2013-01-10 15:11:00,
2013-01-10 10:16:00,43.2,22.7,30.32,NW,318,6.4,11.5,44,0.00,CLR,,0.00,WeatherDisplay:10.37,2013-01-10 15:16:00,
2013-01-10 10:21:00,43.5,22.5,30.32,NW,321,5.0,7.0,43,0.00,CLR,,0.00,WeatherDisplay:10.37,2013-01-10 15:21:00,
2013-01-10 10:26:00,43.6,23.1,30.32,WNW,287,9.2,18.4,44,0.00,CLR,,0.00,WeatherDisplay:10.37,2013-01-10 15:26:00,
2013-01-10 10:31:00,43.8,22.7,30.32,NW,305,6.7,9.2,43,0.00,CLR,,0.00,WeatherDisplay:10.37,2013-01-10 15:31:00,
2013-01-10 10:36:00,44.0,22.9,30.32,NW,310,7.8,11.5,43,0.00,CLR,,0.00,WeatherDisplay:10.37,2013-01-10 15:36:00,
2013-01-10 10:42:00,44.1,23.0,30.32,NW,324,8.6,12.0,43,0.00,CLR,,0.00,WeatherDisplay:10.37,2013-01-10 15:42:00,
2013-01-10 10:47:00,44.1,23.0,30.32,NNW,327,8.5,11.5,43,0.00,CLR,,0.00,WeatherDisplay:10.37,2013-01-10 15:47:00,
2013-01-10 10:52:00,44.2,22.5,30.32,WNW,302,11.1,15.0,42,0.00,CLR,,0.00,WeatherDisplay:10.37,2013-01-10 15:52:00,
2013-01-10 10:57:00,44.3,23.2,30.31,NW,314,8.0,10.4,43,0.00,CLR,,0.00,WeatherDisplay:10.37,2013-01-10 15:57:00,
2013-01-10 11:02:00,44.3,23.2,30.30,NW,314,10.3,18.4,43,0.00,CLR,,0.00,WeatherDisplay:10.37,2013-01-10 16:02:00,
2013-01-10 11:08:00,44.3,23.2,30.30,NW,308,6.3,11.0,43,0.00,CLR,,0.00,WeatherDisplay:10.37,2013-01-10 16:08:00,
2013-01-10 11:13:00,44.5,22.8,30.30,NW,304,9.6,12.7,42,0.00,CLR,,0.00,WeatherDisplay:10.37,2013-01-10 16:13:00,
2013-01-10 11:18:00,44.3,23.2,30.29,WSW,239,9.6,12.7,43,0.00,CLR,,0.00,WeatherDisplay:10.37,2013-01-10 16:18:00,
2013-01-10 11:23:00,44.4,22.7,30.29,NW,310,7.3,9.2,42,0.00,CLR,,0.00,WeatherDisplay:10.37,2013-01-10 16:23:00,
2013-01-10 11:28:00,44.4,23.3,30.30,NW,310,7.3,12.0,43,0.00,CLR,,0.00,WeatherDisplay:10.37,2013-01-10 16:28:00,
2013-01-10 11:34:00,44.4,22.7,30.30,NW,317,11.2,15.0,42,0.00,CLR,,0.00,WeatherDisplay:10.37,2013-01-10 16:34:00,
2013-01-10 11:39:00,44.3,23.2,30.29,NNW,334,7.3,11.5,43,0.00,CLR,,0.00,WeatherDisplay:10.37,2013-01-10 16:39:00,
2013-01-10 11:44:00,44.6,22.9,30.30,WNW,290,6.1,9.2,42,0.00,CLR,,0.00,WeatherDisplay:10.37,2013-01-10 16:44:00,
2013-01-10 11:49:00,44.5,23.4,30.30,WNW,291,7.7,12.7,43,0.00,CLR,,0.00,WeatherDisplay:10.37,2013-01-10 16:49:00,
2013-01-10 11:54:00,44.7,23.5,30.30,NNW,343,6.4,13.8,43,0.00,CLR,,0.00,WeatherDisplay:10.37,2013-01-10 16:54:00,
2013-01-10 12:00:00,44.7,23.5,30.30,WNW,283,7.0,15.0,43,0.00,CLR,,0.00,WeatherDisplay:10.37,2013-01-10 17:00:00,
2013-01-10 12:05:00,44.7,23.0,30.31,NW,310,7.8,11.5,42,0.00,CLR,,0.00,WeatherDisplay:10.37,2013-01-10 17:05:00,
2013-01-10 12:10:00,44.7,23.6,30.30,WNW,293,7.0,15.0,43,0.00,CLR,CLR,0.00,WeatherDisplay:10.37,2013-01-10 17:10:00,
2013-01-10 12:15:00,44.7,23.0,30.30,WNW,294,8.0,13.0,42,0.00,CLR,CLR,0.00,WeatherDisplay:10.37,2013-01-10 17:15:00,
2013-01-10 12:20:00,44.7,23.5,30.30,NW,308,5.4,13.8,43,0.00,CLR,,0.00,WeatherDisplay:10.37,2013-01-10 17:20:00,
2013-01-10 12:25:00,44.8,23.1,30.30,NW,304,9.0,16.0,42,0.00,CLR,CLR,0.00,WeatherDisplay:10.37,2013-01-10 17:25:00,
2013-01-10 12:30:00,45.0,23.3,30.30,NW,317,6.0,12.0,42,0.00,CLR,CLR,0.00,WeatherDisplay:10.37,2013-01-10 17:30:00,
2013-01-10 12:35:00,45.2,23.4,30.30,NW,316,7.0,12.0,42,0.00,CLR,CLR,0.00,WeatherDisplay:10.37,2013-01-10 17:35:00,
2013-01-10 12:40:00,45.4,23.6,30.30,WNW,295,10.0,18.0,42,0.00,CLR,CLR,0.00,WeatherDisplay:10.37,2013-01-10 17:40:00,
2013-01-10 12:45:00,45.4,23.6,30.30,NNW,332,10.4,13.8,42,0.00,CLR,,0.00,WeatherDisplay:10.37,2013-01-10 17:45:00,
2013-01-10 12:50:00,45.6,23.8,30.30,WNW,301,11.3,17.3,42,0.00,CLR,,0.00,WeatherDisplay:10.37,2013-01-10 17:50:00,
2013-01-10 12:56:00,45.6,23.8,30.30,WNW,301,9.4,12.0,42,0.00,CLR,,0.00,WeatherDisplay:10.37,2013-01-10 17:56:00,
2013-01-10 13:01:00,45.7,23.9,30.31,WNW,297,3.8,8.1,42,0.00,CLR,,0.00,WeatherDisplay:10.37,2013-01-10 18:01:00,
2013-01-10 13:06:00,45.9,24.1,30.31,WNW,282,7.3,10.4,42,0.00,CLR,,0.00,WeatherDisplay:10.37,2013-01-10 18:06:00,
2013-01-10 13:11:00,45.9,23.5,30.31,NW,307,5.4,8.1,41,0.00,CLR,,0.00,WeatherDisplay:10.37,2013-01-10 18:11:00,
2013-01-10 13:16:00,46.2,24.3,30.31,NW,311,4.8,6.0,42,0.00,CLR,,0.00,WeatherDisplay:10.37,2013-01-10 18:16:00,
2013-01-10 13:21:00,46.1,23.7,30.32,NW,316,5.3,10.4,41,0.00,CLR,,0.00,WeatherDisplay:10.37,2013-01-10 18:21:00,
2013-01-10 13:27:00,46.0,23.6,30.32,NW,308,5.4,9.2,41,0.00,CLR,,0.00,WeatherDisplay:10.37,2013-01-10 18:27:00,
2013-01-10 13:32:00,45.9,23.5,30.32,WNW,293,7.4,10.4,41,0.00,CLR,,0.00,WeatherDisplay:10.37,2013-01-10 18:32:00,
2013-01-10 13:37:00,45.9,24.1,30.33,WSW,243,6.7,10.4,42,0.00,CLR,,0.00,WeatherDisplay:10.37,2013-01-10 18:37:00,
2013-01-10 13:42:00,46.1,23.7,30.33,NW,319,7.4,12.0,41,0.00,CLR,,0.00,WeatherDisplay:10.37,2013-01-10 18:42:00,
2013-01-10 13:47:00,46.2,23.8,30.33,WNW,287,6.2,11.5,41,0.00,CLR,,0.00,WeatherDisplay:10.37,2013-01-10 18:47:00,
2013-01-10 13:52:00,46.1,23.7,30.33,West,265,3.7,9.2,41,0.00,CLR,,0.00,WeatherDisplay:10.37,2013-01-10 18:52:00,
2013-01-10 13:57:00,46.5,24.6,30.33,WNW,303,3.6,5.0,42,0.00,CLR,,0.00,WeatherDisplay:10.37,2013-01-10 18:57:00,
2013-01-10 14:03:00,46.6,24.1,30.33,NW,316,9.4,15.0,41,0.00,CLR,,0.00,WeatherDisplay:10.37,2013-01-10 19:03:00,
2013-01-10 14:08:00,46.3,23.9,30.33,West,274,7.4,11.5,41,0.00,CLR,,0.00,WeatherDisplay:10.37,2013-01-10 19:08:00,
2013-01-10 14:13:00,46.1,23.7,30.34,NW,318,5.0,9.2,41,0.00,CLR,,0.00,WeatherDisplay:10.37,2013-01-10 19:13:00,
2013-01-10 14:18:00,46.2,24.3,30.35,West,281,8.4,10.4,42,0.00,CLR,,0.00,WeatherDisplay:10.37,2013-01-10 19:18:00,
2013-01-10 14:23:00,46.2,23.8,30.35,NW,307,5.9,13.8,41,0.00,CLR,,0.00,WeatherDisplay:10.37,2013-01-10 19:23:00,
2013-01-10 14:29:00,46.1,24.3,30.35,NNW,327,8.3,11.0,42,0.00,CLR,,0.00,WeatherDisplay:10.37,2013-01-10 19:29:00,
2013-01-10 14:34:00,46.0,24.2,30.35,SW,236,9.0,13.0,42,0.00,CLR,,0.00,WeatherDisplay:10.37,2013-01-10 19:34:00,
2013-01-10 14:39:00,45.8,24.0,30.36,NW,311,7.8,12.0,42,0.00,CLR,,0.00,WeatherDisplay:10.37,2013-01-10 19:39:00,
2013-01-10 14:44:00,45.8,24.5,30.36,West,272,6.4,10.4,43,0.00,CLR,,0.00,WeatherDisplay:10.37,2013-01-10 19:44:00,
2013-01-10 14:50:00,45.7,24.5,30.36,NW,326,5.7,10.0,43,0.00,CLR,,0.00,WeatherDisplay:10.37,2013-01-10 19:50:00,
2013-01-10 14:55:00,45.5,24.8,30.36,West,266,6.5,10.4,44,0.00,CLR,,0.00,WeatherDisplay:10.37,2013-01-10 19:55:00,
2013-01-10 15:00:00,45.5,24.3,30.36,WNW,303,7.1,13.0,43,0.00,CLR,,0.00,WeatherDisplay:10.37,2013-01-10 20:00:00,
2013-01-10 15:05:00,45.3,24.1,30.36,NW,325,5.0,11.5,43,0.00,CLR,,0.00,WeatherDisplay:10.37,2013-01-10 20:05:00,
2013-01-10 15:10:00,45.4,24.1,30.36,WNW,301,5.0,12.0,43,0.00,CLR,CLR,0.00,WeatherDisplay:10.37,2013-01-10 20:10:00,
2013-01-10 15:15:00,45.2,23.5,30.37,WNW,299,6.0,16.0,42,0.00,CLR,CLR,0.00,WeatherDisplay:10.37,2013-01-10 20:15:00,
2013-01-10 15:20:00,45.0,23.8,30.37,NW,307,6.0,15.0,43,0.00,CLR,CLR,0.00,WeatherDisplay:10.37,2013-01-10 20:20:00,
2013-01-10 15:25:00,44.8,23.7,30.37,NW,315,8.0,12.0,43,0.00,CLR,CLR,0.00,WeatherDisplay:10.37,2013-01-10 20:25:00,
2013-01-10 15:30:00,44.7,23.6,30.37,NW,313,5.0,12.0,43,0.00,CLR,CLR,0.00,WeatherDisplay:10.37,2013-01-10 20:30:00,
2013-01-10 15:35:00,44.5,23.9,30.38,NW,320,1.0,10.0,44,0.00,CLR,CLR,0.00,WeatherDisplay:10.37,2013-01-10 20:35:00,
2013-01-10 15:40:00,44.2,23.6,30.39,WNW,298,4.5,8.1,44,0.00,CLR,,0.00,WeatherDisplay:10.37,2013-01-10 20:40:00,
2013-01-10 15:45:00,44.1,23.6,30.39,NW,323,6.3,11.5,44,0.00,CLR,,0.00,WeatherDisplay:10.37,2013-01-10 20:45:00,
2013-01-10 15:50:00,43.8,23.3,30.39,NNW,331,5.0,10.0,44,0.00,CLR,CLR,0.00,WeatherDisplay:10.37,2013-01-10 20:50:00,
2013-01-10 15:55:00,43.6,23.1,30.39,NNW,329,6.0,10.0,44,0.00,CLR,CLR,0.00,WeatherDisplay:10.37,2013-01-10 20:55:00,
2013-01-10 16:00:00,43.4,23.5,30.39,NW,320,6.0,10.0,45,0.00,CLR,CLR,0.00,WeatherDisplay:10.37,2013-01-10 21:00:00,
2013-01-10 16:05:00,43.1,23.2,30.38,NW,324,5.0,10.0,45,0.00,CLR,CLR,0.00,WeatherDisplay:10.37,2013-01-10 21:05:00,
2013-01-10 16:10:00,42.8,23.4,30.38,NW,326,3.0,10.0,46,0.00,CLR,CLR,0.00,WeatherDisplay:10.37,2013-01-10 21:10:00,
2013-01-10 16:15:00,42.5,23.2,30.39,NW,325,5.0,8.0,46,0.00,CLR,CLR,0.00,WeatherDisplay:10.37,2013-01-10 21:15:00,
2013-01-10 16:20:00,42.2,23.4,30.40,NW,326,3.0,7.0,47,0.00,CLR,CLR,0.00,WeatherDisplay:10.37,2013-01-10 21:20:00,
2013-01-10 16:25:00,42.0,23.2,30.41,NNW,345,2.0,5.0,47,0.00,CLR,CLR,0.00,WeatherDisplay:10.37,2013-01-10 21:25:00,
2013-01-10 16:30:00,41.7,22.9,30.41,NNW,327,5.0,6.0,47,0.00,CLR,CLR,0.00,WeatherDisplay:10.37,2013-01-10 21:30:00,
2013-01-10 16:35:00,41.5,23.2,30.41,NW,309,3.0,6.0,48,0.00,CLR,CLR,0.00,WeatherDisplay:10.37,2013-01-10 21:35:00,
2013-01-10 16:40:00,41.2,23.0,30.41,NW,308,3.0,7.0,48,0.00,CLR,CLR,0.00,WeatherDisplay:10.37,2013-01-10 21:40:00,
2013-01-10 16:45:00,41.1,23.4,30.41,NW,320,2.9,4.0,49,0.00,CLR,,0.00,WeatherDisplay:10.37,2013-01-10 21:45:00,
2013-01-10 16:51:00,40.9,23.2,30.42,NW,307,4.1,6.9,49,0.00,CLR,,0.00,WeatherDisplay:10.37,2013-01-10 21:51:00,
2013-01-10 16:56:00,40.9,23.2,30.43,WNW,293,3.8,6.9,49,0.00,CLR,,0.00,WeatherDisplay:10.37,2013-01-10 21:56:00,
2013-01-10 17:01:00,40.5,23.3,30.43,NW,307,5.2,8.0,50,0.00,CLR,,0.00,WeatherDisplay:10.37,2013-01-10 22:01:00,
2013-01-10 17:06:00,40.5,22.8,30.44,NW,304,3.4,10.4,49,0.00,CLR,,0.00,WeatherDisplay:10.37,2013-01-10 22:06:00,
2013-01-10 17:12:00,40.3,22.6,30.44,NW,308,5.8,8.1,49,0.00,CLR,,0.00,WeatherDisplay:10.37,2013-01-10 22:12:00,
2013-01-10 17:17:00,40.2,23.0,30.44,NNW,329,3.9,5.8,50,0.00,CLR,,0.00,WeatherDisplay:10.37,2013-01-10 22:17:00,
2013-01-10 17:22:00,40.2,23.0,30.43,NW,317,3.8,5.0,50,0.00,CLR,,0.00,WeatherDisplay:10.37,2013-01-10 22:22:00,
2013-01-10 17:27:00,39.9,22.7,30.43,WNW,300,7.2,10.4,50,0.00,CLR,,0.00,WeatherDisplay:10.37,2013-01-10 22:27:00,
2013-01-10 17:33:00,40.1,22.9,30.43,NW,311,4.5,8.1,50,0.00,CLR,,0.00,WeatherDisplay:10.37,2013-01-10 22:33:00,
2013-01-10 17:38:00,40.0,22.8,30.44,NW,310,1.5,6.9,50,0.00,CLR,,0.00,WeatherDisplay:10.37,2013-01-10 22:38:00,
2013-01-10 17:43:00,39.7,23.0,30.44,NW,310,1.4,4.6,51,0.00,CLR,,0.00,WeatherDisplay:10.37,2013-01-10 22:43:00,
2013-01-10 17:48:00,39.5,22.8,30.44,North,358,1.9,3.5,51,0.00,CLR,,0.00,WeatherDisplay:10.37,2013-01-10 22:48:00,
2013-01-10 17:53:00,39.1,22.9,30.44,NNW,330,2.4,4.0,52,0.00,CLR,,0.00,WeatherDisplay:10.37,2013-01-10 22:53:00,
2013-01-10 17:58:00,39.0,22.8,30.43,NW,323,3.6,6.0,52,0.00,CLR,,0.00,WeatherDisplay:10.37,2013-01-10 22:58:00,
2013-01-10 18:04:00,38.7,23.0,30.43,NNW,347,2.5,4.6,53,0.00,CLR,,0.00,WeatherDisplay:10.37,2013-01-10 23:04:00,
2013-01-10 18:09:00,38.6,22.9,30.44,NNW,339,1.5,4.0,53,0.00,CLR,,0.00,WeatherDisplay:10.37,2013-01-10 23:09:00,
2013-01-10 18:15:00,38.3,23.1,30.43,North,349,2.5,3.5,54,0.00,CLR,,0.00,WeatherDisplay:10.37,2013-01-10 23:15:00,
2013-01-10 18:20:00,38.1,22.9,30.43,NW,310,4.5,9.2,54,0.00,CLR,,0.00,WeatherDisplay:10.37,2013-01-10 23:20:00,
2013-01-10 18:25:00,38.4,23.2,30.43,WNW,303,7.4,11.5,54,0.00,CLR,,0.00,WeatherDisplay:10.37,2013-01-10 23:25:00,
2013-01-10 18:30:00,38.4,23.2,30.43,NW,307,5.0,9.0,54,0.00,CLR,CLR,0.00,WeatherDisplay:10.37,2013-01-10 23:30:00,
2013-01-10 18:36:00,38.5,23.3,30.44,NW,307,3.9,8.1,54,0.00,CLR,,0.00,WeatherDisplay:10.37,2013-01-10 23:36:00,
2013-01-10 18:41:00,38.5,23.3,30.45,North,0,3.6,6.9,54,0.00,CLR,,0.00,WeatherDisplay:10.37,2013-01-10 23:41:00,
2013-01-10 18:46:00,38.3,23.1,30.45,NW,312,5.8,10.4,54,0.00,CLR,,0.00,WeatherDisplay:10.37,2013-01-10 23:46:00,
2013-01-10 18:51:00,38.4,23.2,30.45,NW,319,5.9,9.2,54,0.00,CLR,,0.00,WeatherDisplay:10.37,2013-01-10 23:51:00,
2013-01-10 18:57:00,38.2,23.4,30.45,NW,315,4.6,8.1,55,0.00,CLR,,0.00,WeatherDisplay:10.37,2013-01-10 23:57:00,
2013-01-10 19:02:00,38.2,23.4,30.45,NW,316,4.8,6.0,55,0.00,CLR,,0.00,WeatherDisplay:10.37,2013-01-11 00:02:00,
2013-01-10 19:07:00,38.0,23.3,30.45,NW,316,5.2,9.2,55,0.00,CLR,,0.00,WeatherDisplay:10.37,2013-01-11 00:07:00,
2013-01-10 19:12:00,38.0,23.3,30.45,NW,310,7.1,10.0,55,0.00,CLR,,0.00,WeatherDisplay:10.37,2013-01-11 00:12:00,
2013-01-10 19:17:00,37.9,23.2,30.45,WNW,293,4.5,8.0,55,0.00,CLR,,0.00,WeatherDisplay:10.37,2013-01-11 00:17:00,
2013-01-10 19:22:00,38.1,23.3,30.45,NW,310,5.0,8.1,55,0.00,CLR,,0.00,WeatherDisplay:10.37,2013-01-11 00:22:00,
2013-01-10 19:28:00,37.7,23.0,30.45,NW,322,6.5,11.5,55,0.00,CLR,,0.00,WeatherDisplay:10.37,2013-01-11 00:28:00,
2013-01-10 19:33:00,37.7,23.4,30.46,NNW,339,6.0,8.1,56,0.00,CLR,,0.00,WeatherDisplay:10.37,2013-01-11 00:33:00,
2013-01-10 19:38:00,37.5,23.2,30.46,WNW,301,3.5,6.0,56,0.00,CLR,,0.00,WeatherDisplay:10.37,2013-01-11 00:38:00,
2013-01-10 19:43:00,37.4,23.1,30.47,NNE,32,3.6,8.1,56,0.00,CLR,,0.00,WeatherDisplay:10.37,2013-01-11 00:43:00,
2013-01-10 19:49:00,37.0,22.7,30.47,NW,322,1.7,3.5,56,0.00,CLR,,0.00,WeatherDisplay:10.37,2013-01-11 00:49:00,
2013-01-10 19:54:00,36.8,23.0,30.47,NNW,344,2.0,3.5,57,0.00,CLR,,0.00,WeatherDisplay:10.37,2013-01-11 00:54:00,
2013-01-10 19:59:00,36.9,23.1,30.47,NW,312,5.3,8.1,57,0.00,CLR,,0.00,WeatherDisplay:10.37,2013-01-11 00:59:00,
2013-01-10 20:04:00,36.8,23.0,30.47,NNW,330,2.0,3.5,57,0.00,CLR,,0.00,WeatherDisplay:10.37,2013-01-11 01:04:00,
2013-01-10 20:09:00,36.5,22.7,30.48,North,358,3.1,3.5,57,0.00,CLR,,0.00,WeatherDisplay:10.37,2013-01-11 01:09:00,
2013-01-10 20:14:00,36.3,22.9,30.48,NW,323,3.8,5.0,58,0.00,CLR,,0.00,WeatherDisplay:10.37,2013-01-11 01:14:00,
2013-01-10 20:19:00,36.2,22.8,30.48,NNW,327,2.9,4.6,58,0.00,CLR,,0.00,WeatherDisplay:10.37,2013-01-11 01:19:00,
2013-01-10 20:24:00,36.1,23.1,30.48,WNW,291,3.0,6.9,59,0.00,CLR,,0.00,WeatherDisplay:10.37,2013-01-11 01:24:00,
2013-01-10 20:30:00,36.0,23.0,30.49,NNW,346,1.6,3.5,59,0.00,CLR,,0.00,WeatherDisplay:10.37,2013-01-11 01:30:00,
2013-01-10 20:35:00,35.9,23.0,30.48,NW,323,3.6,5.8,59,0.00,CLR,,0.00,WeatherDisplay:10.37,2013-01-11 01:35:00,
2013-01-10 20:40:00,35.7,22.8,30.48,WNW,302,3.0,5.8,59,0.00,CLR,,0.00,WeatherDisplay:10.37,2013-01-11 01:40:00,
2013-01-10 20:45:00,35.6,22.7,30.49,NW,315,3.0,6.0,59,0.00,CLR,CLR,0.00,WeatherDisplay:10.37,2013-01-11 01:45:00,
2013-01-10 20:50:00,35.5,22.6,30.49,NW,317,5.0,7.0,59,0.00,CLR,CLR,0.00,WeatherDisplay:10.37,2013-01-11 01:50:00,
2013-01-10 20:55:00,35.5,22.5,30.50,NW,324,2.0,6.0,59,0.00,CLR,CLR,0.00,WeatherDisplay:10.37,2013-01-11 01:55:00,
2013-01-10 21:00:00,35.4,22.5,30.50,NW,323,2.0,5.0,59,0.00,CLR,CLR,0.00,WeatherDisplay:10.37,2013-01-11 02:00:00,
2013-01-10 21:05:00,35.1,22.6,30.50,NW,325,2.7,3.5,60,0.00,CLR,,0.00,WeatherDisplay:10.37,2013-01-11 02:05:00,
2013-01-10 21:10:00,34.9,22.8,30.50,NW,325,2.0,5.0,61,0.00,CLR,CLR,0.00,WeatherDisplay:10.37,2013-01-11 02:10:00,
2013-01-10 21:15:00,34.9,22.8,30.50,NW,323,2.0,5.0,61,0.00,CLR,CLR,0.00,WeatherDisplay:10.37,2013-01-11 02:15:00,
2013-01-10 21:20:00,34.9,22.8,30.51,NW,324,2.5,3.5,61,0.00,CLR,,0.00,WeatherDisplay:10.37,2013-01-11 02:20:00,
2013-01-10 21:26:00,34.9,23.2,30.51,NW,310,2.5,4.6,62,0.00,CLR,,0.00,WeatherDisplay:10.37,2013-01-11 02:26:00,
2013-01-10 21:31:00,34.9,23.2,30.51,NW,310,0.5,2.3,62,0.00,CLR,,0.00,WeatherDisplay:10.37,2013-01-11 02:31:00,
2013-01-10 21:36:00,34.6,22.9,30.52,NW,325,2.7,3.5,62,0.00,CLR,,0.00,WeatherDisplay:10.37,2013-01-11 02:36:00,
2013-01-10 21:41:00,34.3,22.6,30.52,NW,325,2.1,4.0,62,0.00,CLR,,0.00,WeatherDisplay:10.37,2013-01-11 02:41:00,
2013-01-10 21:46:00,34.3,22.6,30.52,NW,325,2.2,3.5,62,0.00,CLR,,0.00,WeatherDisplay:10.37,2013-01-11 02:46:00,
2013-01-10 21:51:00,34.5,22.8,30.52,NW,316,2.4,4.6,62,0.00,CLR,,0.00,WeatherDisplay:10.37,2013-01-11 02:51:00,
2013-01-10 21:57:00,34.1,22.4,30.52,NW,316,1.3,3.5,62,0.00,CLR,,0.00,WeatherDisplay:10.37,2013-01-11 02:57:00,
2013-01-10 22:02:00,34.2,22.9,30.52,NW,316,2.7,4.6,63,0.00,CLR,,0.00,WeatherDisplay:10.37,2013-01-11 03:02:00,
2013-01-10 22:07:00,34.3,23.0,30.52,NNW,327,2.8,4.0,63,0.00,CLR,,0.00,WeatherDisplay:10.37,2013-01-11 03:07:00,
2013-01-10 22:13:00,34.2,22.9,30.52,NW,311,3.0,3.5,63,0.00,CLR,,0.00,WeatherDisplay:10.37,2013-01-11 03:13:00,
2013-01-10 22:18:00,34.1,22.8,30.52,NW,314,1.6,5.0,63,0.00,CLR,,0.00,WeatherDisplay:10.37,2013-01-11 03:18:00,
2013-01-10 22:23:00,34.1,22.8,30.52,NW,320,2.6,3.5,63,0.00,CLR,,0.00,WeatherDisplay:10.37,2013-01-11 03:23:00,
2013-01-10 22:28:00,33.9,22.6,30.52,NNW,342,2.6,4.0,63,0.00,CLR,,0.00,WeatherDisplay:10.37,2013-01-11 03:28:00,
2013-01-10 22:33:00,33.9,22.6,30.52,NW,322,1.7,3.5,63,0.00,CLR,,0.00,WeatherDisplay:10.37,2013-01-11 03:33:00,
2013-01-10 22:38:00,33.8,22.9,30.52,North,354,1.7,3.5,64,0.00,CLR,,0.00,WeatherDisplay:10.37,2013-01-11 03:38:00,
2013-01-10 22:44:00,33.9,23.0,30.52,NW,313,2.7,6.0,64,0.00,CLR,,0.00,WeatherDisplay:10.37,2013-01-11 03:44:00,
2013-01-10 22:49:00,33.8,22.9,30.52,NW,313,1.4,2.3,64,0.00,CLR,,0.00,WeatherDisplay:10.37,2013-01-11 03:49:00,
2013-01-10 22:54:00,33.6,22.7,30.52,NNW,330,1.6,2.3,64,0.00,CLR,,0.00,WeatherDisplay:10.37,2013-01-11 03:54:00,
2013-01-10 22:59:00,33.4,22.5,30.53,NNW,331,0.0,1.2,64,0.00,CLR,,0.00,WeatherDisplay:10.37,2013-01-11 03:59:00,
2013-01-10 23:04:00,33.4,22.5,30.53,NNW,331,0.2,1.2,64,0.00,CLR,,0.00,WeatherDisplay:10.37,2013-01-11 04:04:00,
2013-01-10 23:10:00,33.0,22.1,30.52,NNW,331,1.9,3.5,64,0.00,CLR,,0.00,WeatherDisplay:10.37,2013-01-11 04:10:00,
2013-01-10 23:15:00,32.8,22.3,30.52,NNW,331,2.6,3.5,65,0.00,CLR,,0.00,WeatherDisplay:10.37,2013-01-11 04:15:00,
2013-01-10 23:20:00,32.9,22.0,30.51,NNW,331,0.9,2.3,64,0.00,CLR,,0.00,WeatherDisplay:10.37,2013-01-11 04:20:00,
2013-01-10 23:25:00,32.9,22.1,30.51,NNW,331,2.0,3.0,64,0.00,CLR,CLR,0.00,WeatherDisplay:10.37,2013-01-11 04:25:00,
2013-01-10 23:30:00,33.0,22.5,30.51,NNW,330,2.1,3.5,65,0.00,CLR,,0.00,WeatherDisplay:10.37,2013-01-11 04:30:00,
2013-01-10 23:36:00,33.0,22.5,30.52,NW,315,1.0,3.0,65,0.00,CLR,,0.00,WeatherDisplay:10.37,2013-01-11 04:36:00,
2013-01-10 23:41:00,32.7,21.9,30.51,NW,315,2.1,3.5,64,0.00,CLR,,0.00,WeatherDisplay:10.37,2013-01-11 04:41:00,
2013-01-10 23:46:00,32.8,22.3,30.51,NW,313,2.4,4.6,65,0.00,CLR,,0.00,WeatherDisplay:10.37,2013-01-11 04:46:00,
2013-01-10 23:51:00,32.7,22.2,30.51,NW,314,1.2,3.5,65,0.00,CLR,,0.00,WeatherDisplay:10.37,2013-01-11 04:51:00,
2013-01-10 23:57:00,32.6,22.1,30.50,NW,304,2.3,3.5,65,0.00,CLR,,0.00,WeatherDisplay:10.37,2013-01-11 04:57:00,